TimeEDT,TemperatureF,Dew PointF,Humidity,Sea Level PressureIn,VisibilityMPH,Wind Direction,Wind SpeedMPH,Gust SpeedMPH,PrecipitationIn,Events,Conditions,WindDirDegrees,DateUTC
12:35 AM,66.2,60.8,83,29.70,0.2,SSE,3.5,-,N/A,,Overcast,160,2012-06-19 04:35:00
12:55 AM,66.2,60.8,83,29.70,0.5,Calm,Calm,-,N/A,,Overcast,0,2012-06-19 04:55:00
1:15 AM,66.2,60.8,83,29.70,0.2,Calm,Calm,-,N/A,,Overcast,0,2012-06-19 05:15:00
1:35 AM,64.4,60.8,88,29.71,0.2,SE,3.5,-,N/A,,Overcast,130,2012-06-19 05:35:00
1:55 AM,66.2,60.8,83,29.71,0.2,Calm,Calm,-,N/A,,Overcast,0,2012-06-19 05:55:00
2:15 AM,64.4,60.8,88,29.71,0.5,Calm,Calm,-,N/A,,Overcast,0,2012-06-19 06:15:00
2:35 AM,64.4,60.8,88,29.71,0.2,Calm,Calm,-,N/A,,Overcast,0,2012-06-19 06:35:00
2:55 AM,64.4,60.8,88,29.71,0.2,Calm,Calm,-,N/A,,Overcast,0,2012-06-19 06:55:00
3:15 AM,64.4,59.0,83,29.71,0.2,Calm,Calm,-,N/A,,Overcast,0,2012-06-19 07:15:00
3:35 AM,64.4,60.8,88,29.70,0.2,Calm,Calm,-,N/A,,Overcast,0,2012-06-19 07:35:00
3:55 AM,64.4,60.8,88,29.71,0.2,South,6.9,-,N/A,,Overcast,180,2012-06-19 07:55:00
4:15 AM,64.4,60.8,88,29.72,0.2,South,3.5,-,N/A,,Overcast,180,2012-06-19 08:15:00
4:35 AM,64.4,60.8,88,29.72,0.2,Calm,Calm,-,N/A,,Overcast,0,2012-06-19 08:35:00
4:55 AM,66.2,60.8,83,29.72,0.2,Calm,Calm,-,N/A,,Overcast,0,2012-06-19 08:55:00
5:15 AM,66.2,60.8,83,29.73,0.2,Calm,Calm,-,N/A,,Overcast,0,2012-06-19 09:15:00
5:35 AM,66.2,60.8,83,29.73,0.2,Calm,Calm,-,N/A,,Overcast,0,2012-06-19 09:35:00
5:55 AM,66.2,60.8,83,29.74,0.2,Calm,Calm,-,N/A,,Overcast,0,2012-06-19 09:55:00
6:15 AM,66.2,60.8,83,29.74,0.2,Calm,Calm,-,N/A,,Overcast,0,2012-06-19 10:15:00
6:35 AM,66.2,60.8,83,29.75,0.2,Calm,Calm,-,N/A,,Overcast,0,2012-06-19 10:35:00
6:55 AM,66.2,60.8,83,29.75,0.2,Calm,Calm,-,N/A,,Overcast,0,2012-06-19 10:55:00
7:15 AM,66.2,60.8,83,29.75,0.2,Calm,Calm,-,N/A,,Overcast,0,2012-06-19 11:15:00
7:35 AM,66.2,62.6,88,29.75,0.2,Calm,Calm,-,N/A,,Overcast,0,2012-06-19 11:35:00
8:15 AM,68.0,62.6,83,29.77,0.2,Calm,Calm,-,N/A,,Overcast,0,2012-06-19 12:15:00
8:35 AM,66.2,60.8,83,29.79,0.2,Calm,Calm,-,N/A,,Overcast,0,2012-06-19 12:35:00
8:55 AM,66.2,60.8,83,29.82,0.2,SSE,5.8,-,N/A,,Overcast,160,2012-06-19 12:55:00
9:15 AM,64.4,59.0,83,29.84,0.2,South,4.6,-,N/A,,Overcast,170,2012-06-19 13:15:00
9:35 AM,64.4,59.0,83,29.85,0.2,Calm,Calm,-,N/A,Thunderstorm,Thunderstorm,0,2012-06-19 13:35:00
9:55 AM,64.4,59.0,83,29.88,0.5,West,4.6,-,N/A,Thunderstorm,Overcast,280,2012-06-19 13:55:00
10:15 AM,66.2,60.8,83,29.92,2.5,South,12.7,-,N/A,Thunderstorm,Thunderstorm,190,2012-06-19 14:15:00
10:35 AM,66.2,60.8,83,29.94,5.0,West,4.6,-,N/A,Thunderstorm,Overcast,260,2012-06-19 14:35:00
10:55 AM,66.2,62.6,88,29.92,10.0,North,6.9,-,N/A,,Overcast,360,2012-06-19 14:55:00
11:15 AM,66.2,60.8,83,29.84,10.0,ENE,8.1,-,N/A,,Mostly Cloudy,70,2012-06-19 15:15:00
11:35 AM,66.2,60.8,83,29.73,10.0,ENE,11.5,-,N/A,,Partly Cloudy,70,2012-06-19 15:35:00
11:55 AM,69.8,62.6,78,29.81,10.0,WNW,3.5,-,N/A,,Clear,290,2012-06-19 15:55:00
12:15 PM,69.8,62.6,78,29.82,10.0,WNW,6.9,-,N/A,,Clear,290,2012-06-19 16:15:00
12:35 PM,69.8,62.6,78,29.84,10.0,WNW,9.2,-,N/A,,Clear,290,2012-06-19 16:35:00
12:55 PM,71.6,62.6,73,29.84,10.0,West,6.9,-,N/A,,Clear,280,2012-06-19 16:55:00
1:15 PM,71.6,62.6,73,29.84,10.0,South,6.9,-,N/A,,Clear,190,2012-06-19 17:15:00
1:35 PM,73.4,64.4,73,29.85,10.0,SSW,9.2,-,N/A,,Mostly Cloudy,200,2012-06-19 17:35:00
1:55 PM,71.6,62.6,73,29.85,10.0,South,13.8,19.6,0.01,,Mostly Cloudy,180,2012-06-19 17:55:00
2:15 PM,71.6,60.8,69,29.85,10.0,South,15.0,20.7,N/A,,Partly Cloudy,180,2012-06-19 18:15:00
2:35 PM,71.6,62.6,73,29.85,10.0,South,18.4,23.0,N/A,,Scattered Clouds,190,2012-06-19 18:35:00
2:55 PM,71.6,62.6,73,29.86,10.0,South,15.0,20.7,N/A,,Scattered Clouds,190,2012-06-19 18:55:00
3:15 PM,71.6,60.8,69,29.87,10.0,SSW,12.7,21.9,N/A,,Scattered Clouds,200,2012-06-19 19:15:00
3:35 PM,73.4,62.6,69,29.87,10.0,SSW,15.0,18.4,N/A,,Partly Cloudy,200,2012-06-19 19:35:00
3:55 PM,73.4,62.6,69,29.87,10.0,SSW,13.8,21.9,N/A,,Clear,210,2012-06-19 19:55:00
4:15 PM,75.2,62.6,65,29.87,10.0,SSW,11.5,19.6,N/A,,Clear,210,2012-06-19 20:15:00
4:35 PM,75.2,64.4,69,29.86,10.0,SSW,10.4,16.1,N/A,,Clear,210,2012-06-19 20:35:00
4:55 PM,78.8,64.4,61,29.85,10.0,South,11.5,-,N/A,,Clear,190,2012-06-19 20:55:00
5:15 PM,78.8,64.4,61,29.85,10.0,SW,8.1,-,N/A,,Clear,220,2012-06-19 21:15:00
5:35 PM,78.8,64.4,61,29.85,10.0,SSW,10.4,-,N/A,,Clear,200,2012-06-19 21:35:00
5:55 PM,78.8,64.4,61,29.85,10.0,SSW,10.4,17.3,N/A,,Clear,200,2012-06-19 21:55:00
6:15 PM,78.8,64.4,61,29.85,10.0,South,4.6,-,N/A,,Clear,180,2012-06-19 22:15:00
6:35 PM,78.8,64.4,61,29.84,10.0,ESE,5.8,-,N/A,,Clear,120,2012-06-19 22:35:00
6:55 PM,75.2,64.4,69,29.84,10.0,SE,6.9,-,N/A,,Clear,130,2012-06-19 22:55:00
7:15 PM,75.2,62.6,65,29.84,10.0,SE,6.9,-,N/A,,Clear,130,2012-06-19 23:15:00
7:55 PM,73.4,62.6,69,29.82,10.0,East,8.1,-,N/A,,Clear,100,2012-06-19 23:55:00
8:15 PM,73.4,60.8,65,29.82,10.0,SE,6.9,-,N/A,,Clear,130,2012-06-20 00:15:00
8:35 PM,71.6,60.8,69,29.81,10.0,ESE,9.2,-,N/A,,Clear,120,2012-06-20 00:35:00
8:55 PM,69.8,60.8,73,29.81,10.0,SE,5.8,-,N/A,,Clear,140,2012-06-20 00:55:00
9:15 PM,69.8,60.8,73,29.80,10.0,SE,5.8,-,N/A,,Clear,140,2012-06-20 01:15:00
9:35 PM,69.8,60.8,73,29.80,10.0,SE,5.8,-,N/A,,Clear,140,2012-06-20 01:35:00
10:15 PM,71.6,60.8,69,29.80,10.0,South,9.2,-,N/A,,Clear,190,2012-06-20 02:15:00
10:35 PM,69.8,60.8,73,29.81,10.0,SSW,8.1,-,N/A,,Clear,200,2012-06-20 02:35:00
10:55 PM,69.8,59.0,68,29.81,10.0,South,10.4,17.3,N/A,,Clear,190,2012-06-20 02:55:00
11:15 PM,69.8,59.0,68,29.81,10.0,South,9.2,-,N/A,,Clear,190,2012-06-20 03:15:00
11:35 PM,69.8,59.0,68,29.82,10.0,South,10.4,-,N/A,,Scattered Clouds,190,2012-06-20 03:35:00
11:55 PM,69.8,57.2,64,29.83,9.0,South,8.1,-,N/A,,Mostly Cloudy,190,2012-06-20 03:55:00